| time (UTC) | temp F | wind direction | speed MPH | gust MPH | rain 1hr in | rain 24hr in | rain mn in | humidity % | barometer mb |
| 20260509201004 | 59 | 184 | 4.0 | 10.0 | 0.00 | 0.65 | 0.49 | 84 | 1007.5 |
| 20260509200004 | 59 | 181 | 3.0 | 8.0 | 0.00 | 0.65 | 0.49 | 85 | 1007.7 |
| 20260509195004 | 58 | 171 | 2.0 | 8.0 | 0.00 | 0.65 | 0.49 | 88 | 1007.8 |
| 20260509193004 | 58 | 173 | 4.0 | 12.0 | 0.00 | 0.65 | 0.49 | 90 | 1007.8 |
| 20260509192004 | 57 | 170 | 3.0 | 11.0 | 0.00 | 0.65 | 0.49 | 93 | 1008.0 |
| 20260509191004 | 56 | 209 | 2.0 | 6.0 | 0.01 | 0.65 | 0.49 | 95 | 1008.2 |
| 20260509190004 | 56 | 184 | 2.0 | 8.0 | 0.02 | 0.65 | 0.49 | 96 | 1008.2 |
| 20260509185004 | 55 | 198 | 2.0 | 7.0 | 0.02 | 0.65 | 0.49 | 100 | 1008.2 |
| 20260509184004 | 54 | 218 | 2.0 | 6.0 | 0.02 | 0.65 | 0.49 | 97 | 1008.3 |
| 20260509183004 | 54 | 237 | 1.0 | 3.0 | 0.02 | 0.65 | 0.49 | 100 | 1008.4 |
| 20260509182004 | 52 | 237 | 1.0 | 5.0 | 0.01 | 0.64 | 0.48 | 97 | 1008.4 |
| 20260509181004 | 52 | 238 | 2.0 | 4.0 | 0.00 | 0.63 | 0.47 | 97 | 1008.4 |
| 20260509180004 | 52 | 238 | 0.0 | 4.0 | 0.00 | 0.63 | 0.47 | 97 | 1008.3 |
| 20260509175004 | 52 | 0 | 0.0 | 1.0 | 0.00 | 0.63 | 0.47 | 100 | 1008.5 |
| 20260509174004 | 52 | 237 | 1.0 | 3.0 | 0.00 | 0.63 | 0.47 | 97 | 1008.4 |
| 20260509173004 | 52 | 237 | 1.0 | 4.0 | 0.00 | 0.63 | 0.47 | 100 | 1008.5 |
| 20260509171004 | 51 | 238 | 1.0 | 4.0 | 0.00 | 0.63 | 0.47 | 97 | 1008.4 |
| 20260509170004 | 51 | 238 | 2.0 | 4.0 | 0.00 | 0.63 | 0.47 | 100 | 1008.4 |
| 20260509165004 | 51 | 234 | 1.0 | 5.0 | 0.01 | 0.63 | 0.47 | 100 | 1008.2 |
| 20260509164004 | 51 | 230 | 1.0 | 3.0 | 0.01 | 0.63 | 0.47 | 100 | 1008.2 |
| 20260509163004 | 51 | 194 | 2.0 | 5.0 | 0.01 | 0.63 | 0.47 | 100 | 1008.2 |
| 20260509162003 | 51 | 176 | 0.0 | 4.0 | 0.01 | 0.63 | 0.47 | 100 | 1008.1 |
| 20260509161004 | 50 | 0 | 0.0 | 2.0 | 0.01 | 0.63 | 0.47 | 100 | 1008.2 |
| 20260509160004 | 50 | 176 | 1.0 | 2.0 | 0.01 | 0.63 | 0.47 | 100 | 1008.2 |
| 20260509155004 | 50 | 176 | 1.0 | 3.0 | 0.00 | 0.62 | 0.46 | 100 | 1008.2 |
| 20260509154004 | 50 | 176 | 1.0 | 4.0 | 0.00 | 0.62 | 0.46 | 97 | 1008.3 |
| 20260509153004 | 50 | 173 | 1.0 | 3.0 | 0.00 | 0.62 | 0.46 | 100 | 1008.4 |
| 20260509152004 | 50 | 0 | 0.0 | 2.0 | 0.00 | 0.62 | 0.46 | 97 | 1008.4 |
| 20260509151004 | 50 | 0 | 0.0 | 3.0 | 0.00 | 0.62 | 0.46 | 97 | 1008.5 |
| 20260509150005 | 49 | 173 | 0.0 | 3.0 | 0.00 | 0.62 | 0.46 | 97 | 1008.5 |
| 20260509145004 | 49 | 173 | 1.0 | 4.0 | 0.00 | 0.62 | 0.46 | 100 | 1008.6 |
| 20260509144004 | 49 | 173 | 1.0 | 5.0 | 0.00 | 0.62 | 0.46 | 100 | 1008.6 |
| 20260509143004 | 49 | 184 | 2.0 | 6.0 | 0.00 | 0.62 | 0.46 | 97 | 1008.6 |
| 20260509142004 | 49 | 190 | 2.0 | 4.0 | 0.00 | 0.62 | 0.46 | 100 | 1008.8 |
| 20260509141004 | 49 | 209 | 2.0 | 7.0 | 0.00 | 0.62 | 0.46 | 100 | 1008.6 |
| 20260509135004 | 48 | 257 | 2.0 | 6.0 | 0.00 | 0.62 | 0.46 | 100 | 1008.6 |
| 20260509134004 | 48 | 258 | 2.0 | 5.0 | 0.00 | 0.62 | 0.46 | 100 | 1008.6 |
| 20260509133004 | 48 | 259 | 1.0 | 8.0 | 0.00 | 0.62 | 0.46 | 100 | 1008.6 |
| 20260509132004 | 48 | 260 | 1.0 | 6.0 | 0.00 | 0.62 | 0.46 | 100 | 1008.8 |
| 20260509131004 | 48 | 261 | 2.0 | 5.0 | 0.01 | 0.62 | 0.46 | 100 | 1009.0 |
| 20260509130005 | 48 | 260 | 1.0 | 8.0 | 0.01 | 0.62 | 0.46 | 100 | 1009.0 |
| 20260509125004 | 48 | 0 | 0.0 | 4.0 | 0.02 | 0.62 | 0.46 | 100 | 1009.0 |
| 20260509124005 | 48 | 0 | 0.0 | 0.0 | 0.03 | 0.62 | 0.46 | 100 | 1009.0 |
| 20260509122005 | 48 | 0 | 0.0 | 0.0 | 0.06 | 0.62 | 0.46 | 100 | 1009.0 |
| 20260509121004 | 48 | 0 | 0.0 | 1.0 | 0.06 | 0.61 | 0.45 | 100 | 1009.1 |
| 20260509120004 | 47 | 0 | 0.0 | 1.0 | 0.07 | 0.61 | 0.45 | 100 | 1009.2 |
| 20260509115004 | 47 | 0 | 0.0 | 3.0 | 0.09 | 0.60 | 0.44 | 100 | 1009.2 |
| 20260509114004 | 47 | 0 | 0.0 | 0.0 | 0.08 | 0.58 | 0.42 | 97 | 1009.1 |
| 20260509113004 | 47 | 260 | 1.0 | 4.0 | 0.07 | 0.57 | 0.41 | 97 | 1009.3 |
| 20260509112004 | 47 | 260 | 0.0 | 4.0 | 0.07 | 0.57 | 0.40 | 100 | 1009.4 |
| 20260509111004 | 47 | 260 | 1.0 | 5.0 | 0.07 | 0.57 | 0.39 | 100 | 1009.3 |
| 20260509110004 | 47 | 260 | 1.0 | 2.0 | 0.06 | 0.55 | 0.37 | 97 | 1009.3 |
| 20260509105004 | 47 | 259 | 2.0 | 5.0 | 0.05 | 0.53 | 0.35 | 97 | 1009.2 |
| 20260509104004 | 47 | 259 | 2.0 | 5.0 | 0.05 | 0.52 | 0.34 | 97 | 1009.1 |
| 20260509103004 | 47 | 260 | 3.0 | 6.0 | 0.06 | 0.52 | 0.34 | 97 | 1009.1 |
| 20260509102004 | 47 | 259 | 3.0 | 7.0 | 0.07 | 0.51 | 0.33 | 97 | 1009.2 |
| 20260509100004 | 47 | 260 | 1.0 | 6.0 | 0.07 | 0.49 | 0.31 | 97 | 1009.2 |
| 20260509095003 | 47 | 262 | 1.0 | 5.0 | 0.07 | 0.48 | 0.30 | 97 | 1009.4 |
| 20260509094004 | 47 | 262 | 0.0 | 5.0 | 0.07 | 0.47 | 0.29 | 97 | 1009.5 |
| 20260509093004 | 47 | 262 | 0.0 | 3.0 | 0.07 | 0.46 | 0.28 | 97 | 1009.4 |
| 20260509092004 | 47 | 262 | 2.0 | 3.0 | 0.06 | 0.44 | 0.26 | 97 | 1009.4 |
| 20260509091003 | 47 | 262 | 2.0 | 7.0 | 0.06 | 0.43 | 0.25 | 97 | 1009.6 |
| 20260509090004 | 46 | 265 | 1.0 | 6.0 | 0.06 | 0.42 | 0.24 | 97 | 1009.5 |
| 20260509085004 | 46 | 266 | 1.0 | 3.0 | 0.06 | 0.41 | 0.23 | 97 | 1009.4 |
| 20260509084004 | 46 | 266 | 0.0 | 4.0 | 0.06 | 0.40 | 0.22 | 97 | 1009.4 |
| 20260509083004 | 46 | 0 | 0.0 | 0.0 | 0.06 | 0.39 | 0.21 | 97 | 1009.5 |
| 20260509081004 | 46 | 0 | 0.0 | 1.0 | 0.05 | 0.37 | 0.19 | 97 | 1009.3 |
| 20260509080004 | 46 | 0 | 0.0 | 0.0 | 0.04 | 0.36 | 0.18 | 97 | 1009.4 |
| 20260509075004 | 46 | 0 | 0.0 | 2.0 | 0.03 | 0.35 | 0.17 | 96 | 1009.7 |
| 20260509074004 | 46 | 0 | 0.0 | 0.0 | 0.03 | 0.34 | 0.16 | 97 | 1009.6 |
| 20260509072004 | 46 | 0 | 0.0 | 0.0 | 0.02 | 0.32 | 0.14 | 96 | 1009.8 |
| 20260509071004 | 46 | 0 | 0.0 | 0.0 | 0.02 | 0.32 | 0.14 | 96 | 1010.0 |
| 20260509070004 | 46 | 266 | 1.0 | 3.0 | 0.02 | 0.32 | 0.14 | 96 | 1010.0 |
| 20260509065004 | 46 | 266 | 0.0 | 3.0 | 0.03 | 0.32 | 0.14 | 96 | 1010.3 |
| 20260509064004 | 46 | 0 | 0.0 | 3.0 | 0.02 | 0.31 | 0.13 | 96 | 1010.4 |
| 20260509063004 | 46 | 0 | 0.0 | 1.0 | 0.02 | 0.30 | 0.12 | 96 | 1010.5 |
| 20260509062004 | 46 | 0 | 0.0 | 0.0 | 0.02 | 0.30 | 0.12 | 96 | 1010.7 |
| 20260509061004 | 46 | 0 | 0.0 | 0.0 | 0.03 | 0.30 | 0.12 | 96 | 1010.9 |
| 20260509060004 | 46 | 0 | 0.0 | 0.0 | 0.04 | 0.30 | 0.12 | 96 | 1011.0 |
| 20260509054004 | 46 | 0 | 0.0 | 2.0 | 0.05 | 0.29 | 0.11 | 96 | 1011.3 |
| 20260509052004 | 46 | 253 | 2.0 | 7.0 | 0.06 | 0.28 | 0.10 | 96 | 1011.4 |
| 20260509051004 | 46 | 236 | 1.0 | 5.0 | 0.06 | 0.26 | 0.09 | 95 | 1011.6 |
| 20260509050004 | 46 | 237 | 0.0 | 3.0 | 0.08 | 0.26 | 0.08 | 95 | 1011.5 |
| 20260509045004 | 47 | 0 | 0.0 | 2.0 | 0.08 | 0.24 | 0.06 | 95 | 1011.5 |
| 20260509044004 | 47 | 0 | 0.0 | 2.0 | 0.08 | 0.24 | 0.06 | 95 | 1011.7 |
| 20260509043005 | 47 | 0 | 0.0 | 0.0 | 0.07 | 0.22 | 0.04 | 95 | 1011.7 |
| 20260509042004 | 47 | 236 | 1.0 | 3.0 | 0.08 | 0.22 | 0.04 | 95 | 1011.8 |
| 20260509041004 | 47 | 0 | 0.0 | 3.0 | 0.06 | 0.20 | 0.02 | 94 | 1012.1 |
| 20260509040006 | 47 | 0 | 0.0 | 0.0 | 0.05 | 0.18 | 0.00 | 94 | 1012.0 |
| 20260509035004 | 47 | 0 | 0.0 | 0.0 | 0.04 | 0.16 | 0.16 | 94 | 1012.0 |
| 20260509034004 | 47 | 0 | 0.0 | 0.0 | 0.04 | 0.16 | 0.16 | 94 | 1012.0 |
| 20260509033004 | 47 | 0 | 0.0 | 0.0 | 0.04 | 0.15 | 0.15 | 94 | 1011.9 |
| 20260509032004 | 47 | 0 | 0.0 | 0.0 | 0.05 | 0.14 | 0.14 | 93 | 1012.0 |
| 20260509031004 | 47 | 0 | 0.0 | 0.0 | 0.06 | 0.14 | 0.14 | 93 | 1012.0 |
| 20260509030004 | 47 | 0 | 0.0 | 0.0 | 0.06 | 0.13 | 0.13 | 93 | 1012.0 |
| 20260509024004 | 48 | 0 | 0.0 | 1.0 | 0.07 | 0.12 | 0.12 | 93 | 1012.1 |
| 20260509023004 | 48 | 0 | 0.0 | 2.0 | 0.08 | 0.11 | 0.11 | 93 | 1012.0 |
| 20260509021004 | 48 | 237 | 1.0 | 3.0 | 0.05 | 0.08 | 0.08 | 92 | 1012.3 |
| 20260509020005 | 48 | 237 | 1.0 | 5.0 | 0.04 | 0.07 | 0.07 | 92 | 1012.1 |
| 20260509015004 | 48 | 239 | 0.0 | 5.0 | 0.04 | 0.07 | 0.07 | 91 | 1012.0 |
| 20260509013004 | 49 | 0 | 0.0 | 1.0 | 0.00 | 0.03 | 0.03 | 90 | 1012.1 |
| 20260509012004 | 49 | 0 | 0.0 | 0.0 | 0.00 | 0.03 | 0.03 | 90 | 1011.9 |
| 20260509011004 | 49 | 0 | 0.0 | 2.0 | 0.00 | 0.03 | 0.03 | 89 | 1011.7 |
| 20260509010004 | 49 | 0 | 0.0 | 3.0 | 0.00 | 0.03 | 0.03 | 89 | 1011.5 |
| 20260509005004 | 49 | 243 | 1.0 | 3.0 | 0.00 | 0.03 | 0.03 | 88 | 1011.3 |
| 20260509004004 | 49 | 223 | 2.0 | 6.0 | 0.00 | 0.03 | 0.03 | 88 | 1011.2 |
| 20260509002005 | 50 | 198 | 1.0 | 5.0 | 0.00 | 0.04 | 0.03 | 85 | 1011.0 |
| 20260509001004 | 50 | 187 | 1.0 | 6.0 | 0.00 | 0.04 | 0.03 | 84 | 1011.1 |
| 20260509000005 | 50 | 175 | 1.0 | 4.0 | 0.00 | 0.04 | 0.03 | 83 | 1011.0 |
| 20260508235004 | 51 | 173 | 2.0 | 4.0 | 0.00 | 0.04 | 0.03 | 81 | 1011.0 |
| 20260508234004 | 52 | 205 | 3.0 | 9.0 | 0.00 | 0.05 | 0.03 | 79 | 1011.0 |
| 20260508233004 | 52 | 223 | 3.0 | 16.0 | 0.00 | 0.06 | 0.03 | 77 | 1010.9 |
| 20260508231004 | 53 | 224 | 2.0 | 11.0 | 0.00 | 0.06 | 0.03 | 75 | 1010.6 |
| 20260508225004 | 54 | 255 | 3.0 | 10.0 | 0.01 | 0.06 | 0.03 | 74 | 1010.4 |
| 20260508224004 | 54 | 259 | 3.0 | 10.0 | 0.01 | 0.06 | 0.03 | 74 | 1010.4 |
| 20260508223004 | 53 | 227 | 3.0 | 8.0 | 0.01 | 0.06 | 0.03 | 75 | 1010.2 |
| 20260508222004 | 53 | 206 | 4.0 | 7.0 | 0.01 | 0.06 | 0.03 | 75 | 1010.3 |
| 20260508221004 | 54 | 178 | 4.0 | 14.0 | 0.01 | 0.06 | 0.03 | 74 | 1010.3 |
| 20260508220004 | 55 | 181 | 4.0 | 11.0 | 0.01 | 0.06 | 0.03 | 74 | 1010.2 |
| 20260508215004 | 56 | 213 | 4.0 | 10.0 | 0.00 | 0.05 | 0.02 | 68 | 1010.3 |
| 20260508213004 | 58 | 220 | 3.0 | 6.0 | 0.00 | 0.05 | 0.02 | 53 | 1009.7 |
| 20260508212004 | 59 | 225 | 4.0 | 10.0 | 0.00 | 0.05 | 0.02 | 53 | 1009.6 |
| 20260508205004 | 60 | 211 | 6.0 | 10.0 | 0.00 | 0.05 | 0.02 | 51 | 1009.6 |
| 20260508204004 | 61 | 186 | 4.0 | 13.0 | 0.00 | 0.05 | 0.02 | 50 | 1009.9 |
| 20260508203004 | 61 | 215 | 5.0 | 9.0 | 0.00 | 0.05 | 0.02 | 54 | 1009.9 |